Hourly Data Report for June 25, 2021

WRIGLEY A
NORTHWEST TERRITORIES
Current Station Operator: NAVCAN

63°12'35.000" N
123°26'12.000" W
149.70 m
2204005
YWY

Download Data

Hourly Data (June 2021)
Hourly Data Report for June 25, 2021
TIME
LST
Temp Definition
°C
Dew Point Definition
°C
Rel Hum Definition
%
Precip. Amount Definition
mm

Wind Dir Definition
10's deg

Wind Spd Definition
km/h
Visibility Definition
km
Stn Press Definition
kPa
Hmdx Definition


Wind Chill Definition


Weather Definition


00:00 20.0 9.5 50 LegendMM 34 4 LegendMM 98.34     LegendNANA
01:00 16.3 10.1 66 LegendMM 3 3 LegendMM 98.41     LegendNANA
02:00 14.8 9.8 72 LegendMM 32 5 LegendMM 98.45     LegendNANA
03:00 14.7 9.9 73 LegendMM 20 3 LegendMM 98.46     LegendNANA
04:00 12.4 9.2 81 LegendMM 0 1 LegendMM 98.52     LegendNANA
05:00 12.9 10.1 83 LegendMM 0 1 LegendMM 98.58     LegendNANA
06:00 16.5 11.7 73 LegendMM 28 2 LegendMM 98.63     LegendNANA
07:00 18.4 11.0 62 LegendMM 30 3 LegendMM 98.63     LegendNANA
08:00 20.3 10.5 53 LegendMM 16 7 LegendMM 98.67     LegendNANA
09:00 23.9 12.2 47 LegendMM 26 4 LegendMM 98.69 26   LegendNANA
10:00 25.1 11.0 41 LegendMM 25 5 LegendMM 98.70 27   LegendNANA
11:00 27.7 11.2 35 LegendMM 30 16 LegendMM 98.75 30   LegendNANA
12:00 28.7 10.3 31 LegendMM 30 13 LegendMM 98.77 30   LegendNANA
13:00 29.7 10.8 30 LegendMM 30 18 LegendMM 98.81 31   LegendNANA
14:00 30.0 11.1 31 LegendMM 31 14 LegendMM 98.85 32   LegendNANA
15:00 30.8 10.4 28 LegendMM 30 19 LegendMM 98.87 32   LegendNANA
16:00 30.6 9.4 26 LegendMM 31 17 LegendMM 98.90 32   LegendNANA
17:00 31.3 8.2 23 LegendMM 31 16 LegendMM 98.89 32   LegendNANA
18:00 30.1 9.0 26 LegendMM 31 17 LegendMM 98.91 31   LegendNANA
19:00 27.9 9.3 31 LegendMM 31 16 LegendMM 99.02 29   LegendNANA
20:00 27.4 9.1 31 LegendMM 32 7 LegendMM 99.05 28   LegendNANA
21:00 24.9 11.1 41 LegendMM 31 9 LegendMM 99.11 27   LegendNANA
22:00 22.8 12.3 51 LegendMM 34 3 LegendMM 99.12 25   LegendNANA
23:00 21.6 12.9 57 LegendMM 31 4 LegendMM 99.17     LegendNANA

Notes on Data Quality.

Legend

  • E = Estimated
  • M = Missing
  • NA = Not Available*
  • [empty] = Indicates an unobserved value
Date modified: